This is the latest recevied weather packets stored in our database for station/object LU3GHF-13. If no packets are shown the sender has not sent any weather packets the latest 10 day(s).
| Time | Temp. | Humidity | Pressure | Rain* | Wind** | Luminosity | Snow |
|---|---|---|---|---|---|---|---|
| 1788505138 | 19.44° C | 69% | 1009.8 hPa | - | - | - | - |
| 1788504482 | 19.44° C | 68% | 1009.9 hPa | - | - | - | - |
| 1788503877 | 20° C | 69% | 1010.1 hPa | - | - | - | - |
| 1788503256 | 19.44° C | 69% | 1010.1 hPa | - | - | - | - |
| 1788502604 | 19.44° C | 70% | 1010.1 hPa | - | - | - | - |
| 1788501946 | 19.44° C | 70% | 1010.2 hPa | - | - | - | - |
| 1788501308 | 19.44° C | 70% | 1010 hPa | - | - | - | - |
| 1788500658 | 19.44° C | 70% | 1009.9 hPa | - | - | - | - |
| 1788500027 | 19.44° C | 69% | 1010 hPa | - | - | - | - |
| 1788499424 | 19.44° C | 70% | 1010.1 hPa | - | - | - | - |
| 1788498777 | 19.44° C | 69% | 1010.2 hPa | - | - | - | - |
| 1788498148 | 20° C | 69% | 1010.1 hPa | - | - | - | - |
| 1788497494 | 20.56° C | 69% | 1010.2 hPa | - | - | - | - |
| 1788496856 | 20° C | 69% | 1010.2 hPa | - | - | - | - |
| 1788496233 | 20.56° C | 69% | 1010.3 hPa | - | - | - | - |
| 1788495610 | 20° C | 70% | 1010.3 hPa | - | - | - | - |
| 1788494981 | 20.56° C | 70% | 1010.3 hPa | - | - | - | - |
| 1788494375 | 20.56° C | 71% | 1010.3 hPa | - | - | - | - |
| 1788493742 | 20.56° C | 72% | 1010.3 hPa | - | - | - | - |
| 1788493135 | 20.56° C | 73% | 1010 hPa | - | - | - | - |
| 1788492528 | 21.11° C | 73% | 1010 hPa | - | - | - | - |
| 1788491894 | 21.67° C | 72% | 1009.9 hPa | - | - | - | - |
| 1788491262 | 21.11° C | 74% | 1010 hPa | - | - | - | - |
| 1788490632 | 21.67° C | 72% | 1009.9 hPa | - | - | - | - |
| 1788490015 | 21.67° C | 72% | 1009.7 hPa | - | - | - | - |
* Rain since midnight (hover to see other rain measurements)
** Current wind speed in m/s (hover to see current wind gust speed)